CW9688 Weather Reports


Display with metric or nautical units.
time (UTC)temp
F
wind
direction
speed
MPH
gust
MPH
rain 1hr
in
rain 24hr
in
rain mn
in
humidity
%
barometer
mb
20240220212804 67 4 6.0 13.0 0.00 0.00 0.00 23 1019.1
20240220210804 68 259 6.0 9.0 0.00 0.00 0.00 21 1019.5
20240220205306 66 347 4.0 7.0 0.00 0.00 0.00 22 1019.5
20240220203804 66 90 3.0 10.0 0.00 0.00 0.00 22 1019.5
20240220203304 66 36 7.0 12.0 0.00 0.00 0.00 23 1019.8
20240220202804 67 34 1.0 7.0 0.00 0.00 0.00 23 1019.8
20240220202307 67 57 7.0 13.0 0.00 0.00 0.00 22 1019.8
20240220201804 65 32 5.0 9.0 0.00 0.00 0.00 23 1019.8
20240220201304 65 32 5.0 9.0 0.00 0.00 0.00 22 1020.0
20240220200804 65 328 8.0 15.0 0.00 0.00 0.00 24 1020.0
20240220200304 65 347 9.0 12.0 0.00 0.00 0.00 23 1020.0
20240220195804 64 300 9.0 14.0 0.00 0.00 0.00 24 1019.7
20240220194304 65 343 4.0 13.0 0.00 0.00 0.00 24 1020.2
20240220193804 64 8 9.0 15.0 0.00 0.00 0.00 23 1020.4
20240220193304 64 339 7.0 12.0 0.00 0.00 0.00 25 1020.4
20240220191305 63 309 10.0 17.0 0.00 0.00 0.00 26 1020.5
20240220190304 63 292 7.0 13.0 0.00 0.00 0.00 26 1020.6
20240220184805 63 324 5.0 8.0 0.00 0.00 0.00 26 1020.9
20240220183805 63 307 10.0 14.0 0.00 0.00 0.00 26 1021.2
20240220183304 63 268 5.0 10.0 0.00 0.00 0.00 26 1021.3
20240220182306 63 151 3.0 7.0 0.00 0.00 0.00 24 1021.5
20240220181304 62 282 3.0 8.0 0.00 0.00 0.00 25 1021.8
20240220180305 62 140 3.0 6.0 0.00 0.00 0.00 25 1021.9
20240220175804 62 146 3.0 5.0 0.00 0.00 0.00 25 1021.5
20240220174804 61 155 3.0 6.0 0.00 0.00 0.00 26 1021.6
20240220174305 61 167 2.0 7.0 0.00 0.00 0.00 27 1021.6
20240220173805 60 130 1.0 7.0 0.00 0.00 0.00 28 1021.7
20240220172306 59 153 6.0 8.0 0.00 0.00 0.00 29 1021.7
20240220171805 59 143 5.0 10.0 0.00 0.00 0.00 31 1021.7
20240220170804 58 163 6.0 9.0 0.00 0.00 0.00 31 1021.7
20240220164805 57 186 2.0 3.0 0.00 0.00 0.00 32 1021.6
20240220164304 56 111 0.0 3.0 0.00 0.00 0.00 34 1021.8
20240220163304 54 142 2.0 6.0 0.00 0.00 0.00 35 1022.1
20240220162306 52 103 3.0 6.0 0.00 0.00 0.00 39 1022.1
20240220161304 51 89 3.0 6.0 0.00 0.00 0.00 40 1022.2
20240220160804 51 82 4.0 6.0 0.00 0.00 0.00 39 1022.3
20240220155804 51 170 6.0 12.0 0.00 0.00 0.00 36 1022.0
20240220155305 51 179 5.0 8.0 0.00 0.00 0.00 36 1021.9
20240220154304 50 199 6.0 10.0 0.00 0.00 0.00 37 1021.8
20240220152306 48 195 7.0 12.0 0.00 0.00 0.00 39 1021.7
20240220151804 46 192 8.0 12.0 0.00 0.00 0.00 41 1021.7
20240220151304 46 222 6.0 10.0 0.00 0.00 0.00 42 1021.7
20240220144804 42 164 6.0 10.0 0.00 0.00 0.00 47 1021.4
20240220141804 38 175 1.0 5.0 0.00 0.00 0.00 50 1021.4
20240220141304 38 195 2.0 3.0 0.00 0.00 0.00 50 1021.3
20240220140304 35 289 5.0 9.0 0.00 0.00 0.00 54 1021.3
20240220134304 37 136 1.0 3.0 0.00 0.00 0.00 49 1021.0
20240220132804 37 190 5.0 9.0 0.00 0.00 0.00 48 1021.0
20240220132305 35 269 6.0 9.0 0.00 0.00 0.00 52 1020.9
20240220131804 35 174 6.0 7.0 0.00 0.00 0.00 52 1020.9
20240220130305 33 192 2.0 3.0 0.00 0.00 0.00 55 1021.0
20240220125804 34 228 1.0 2.0 0.00 0.00 0.00 54 1021.0
20240220125306 34 214 2.0 6.0 0.00 0.00 0.00 53 1021.0
20240220124804 35 240 3.0 6.0 0.00 0.00 0.00 52 1020.7
20240220123804 34 183 3.0 5.0 0.00 0.00 0.00 53 1020.6
20240220122804 33 269 2.0 3.0 0.00 0.00 0.00 56 1020.6
20240220122306 33 189 2.0 7.0 0.00 0.00 0.00 57 1020.6
20240220121804 34 213 1.0 3.0 0.00 0.00 0.00 55 1020.7
20240220120304 35 245 3.0 7.0 0.00 0.00 0.00 53 1020.5
20240220114804 34 165 5.0 7.0 0.00 0.00 0.00 56 1020.9
20240220114304 32 208 6.0 13.0 0.00 0.00 0.00 61 1020.8
20240220113804 31 184 1.0 2.0 0.00 0.00 0.00 61 1020.8
20240220113304 32 162 3.0 6.0 0.00 0.00 0.00 62 1020.2
20240220112805 32 170 1.0 3.0 0.00 0.00 0.00 61 1020.2
20240220112306 32 301 1.0 3.0 0.00 0.00 0.00 61 1020.2
20240220111804 32 252 2.0 6.0 0.00 0.00 0.00 61 1020.2
20240220111304 32 174 3.0 5.0 0.00 0.00 0.00 60 1020.2
20240220110803 32 210 2.0 3.0 0.00 0.00 0.00 60 1020.2
20240220110304 32 165 1.0 3.0 0.00 0.00 0.00 59 1020.4
20240220105804 32 230 1.0 7.0 0.00 0.00 0.00 59 1020.4
20240220104804 33 286 0.0 1.0 0.00 0.00 0.00 57 1020.5
20240220101804 33 187 0.0 3.0 0.00 0.00 0.00 55 1020.3
20240220100804 34 264 2.0 3.0 0.00 0.00 0.00 53 1020.2
20240220100304 34 190 2.0 3.0 0.00 0.00 0.00 53 1020.2
20240220095805 34 267 0.0 1.0 0.00 0.00 0.00 53 1020.1
20240220095306 34 270 1.0 2.0 0.00 0.00 0.00 52 1020.2
20240220094804 35 188 0.0 3.0 0.00 0.00 0.00 50 1020.0
20240220091304 39 217 0.0 5.0 0.00 0.00 0.00 42 1020.2
20240220085305 40 181 4.0 7.0 0.00 0.00 0.00 40 1020.5
20240220084805 40 174 6.0 8.0 0.00 0.00 0.00 41 1020.6
20240220084305 41 182 3.0 7.0 0.00 0.00 0.00 40 1020.6
20240220083804 41 185 5.0 10.0 0.00 0.00 0.00 40 1020.5
20240220083304 41 171 6.0 12.0 0.00 0.00 0.00 40 1020.5
20240220082804 42 222 5.0 10.0 0.00 0.00 0.00 39 1020.4
20240220081303 41 177 7.0 13.0 0.00 0.00 0.00 42 1020.2
20240220080804 40 172 7.0 12.0 0.00 0.00 0.00 45 1020.5
20240220075804 39 232 7.0 12.0 0.00 0.00 0.00 47 1020.2
20240220073804 36 56 2.0 5.0 0.00 0.00 0.00 53 1020.4
20240220073305 37 195 3.0 6.0 0.00 0.00 0.00 52 1020.4
20240220071804 35 167 5.0 12.0 0.00 0.00 0.00 57 1020.0
20240220063304 35 174 2.0 5.0 0.00 0.00 0.00 61 1020.4
20240220062804 35 194 1.0 2.0 0.00 0.00 0.00 60 1020.4
20240220061304 36 154 1.0 3.0 0.00 0.00 0.00 59 1020.2
20240220060304 37 29 2.0 3.0 0.00 0.00 0.00 57 1020.2
20240220055306 38 282 3.0 6.0 0.00 0.00 0.00 54 1019.9
20240220054304 39 183 1.0 5.0 0.00 0.00 0.00 51 1019.9
20240220053304 41 174 1.0 8.0 0.00 0.00 0.00 50 1019.9
20240220052804 40 140 6.0 9.0 0.00 0.00 0.00 53 1020.1
20240220052306 39 80 2.0 12.0 0.00 0.00 0.00 55 1020.1
20240220051804 40 65 0.0 3.0 0.00 0.00 0.00 54 1020.1
20240220051304 40 52 1.0 3.0 0.00 0.00 0.00 52 1020.1
20240220050804 42 153 1.0 5.0 0.00 0.00 0.00 50 1020.1
20240220050304 42 165 3.0 6.0 0.00 0.00 0.00 50 1020.1
20240220044804 40 242 3.0 9.0 0.00 0.00 0.00 53 1020.2
20240220043804 40 184 4.0 7.0 0.00 0.00 0.00 54 1020.2
20240220041804 39 162 3.0 6.0 0.00 0.00 0.00 57 1020.1
20240220041303 39 261 2.0 3.0 0.00 0.00 0.00 56 1020.1
20240220040304 38 167 2.0 3.0 0.00 0.00 0.00 58 1020.4
20240220034805 38 111 1.0 2.0 0.00 0.00 0.00 58 1020.3
20240220034303 38 5 0.0 1.0 0.00 0.00 0.00 57 1020.4
20240220033305 38 5 1.0 2.0 0.00 0.00 0.00 56 1020.4
20240220032804 39 92 1.0 2.0 0.00 0.00 0.00 55 1020.2
20240220031303 40 88 1.0 3.0 0.00 0.00 0.00 53 1020.4
20240220030303 41 157 0.0 2.0 0.00 0.00 0.00 50 1020.8
20240220024804 43 159 2.0 5.0 0.00 0.00 0.00 48 1020.8
20240220023304 41 149 5.0 7.0 0.00 0.00 0.00 52 1020.6
20240220022804 41 139 3.0 6.0 0.00 0.00 0.00 53 1020.6
20240220021304 41 105 0.0 0.0 0.00 0.00 0.00 51 1020.5
20240220015804 43 112 1.0 3.0 0.00 0.00 0.00 49 1020.5
20240220015307 44 134 3.0 5.0 0.00 0.00 0.00 48 1020.2
20240220014804 44 188 1.0 3.0 0.00 0.00 0.00 47 1020.5
20240220013803 45 146 2.0 3.0 0.00 0.00 0.00 46 1020.6
20240220013304 46 201 1.0 2.0 0.00 0.00 0.00 45 1020.6
20240220011804 47 62 1.0 3.0 0.00 0.00 0.00 43 1020.1
20240220010804 49 86 2.0 5.0 0.00 0.00 0.00 41 1020.0
20240220010304 49 112 3.0 6.0 0.00 0.00 0.00 40 1020.0
20240220005804 50 139 3.0 5.0 0.00 0.00 0.00 38 1020.0
20240220003804 52 100 5.0 8.0 0.00 0.00 0.00 35 1019.7
20240220002804 53 66 3.0 7.0 0.00 0.00 0.00 34 1019.7
20240220002305 53 84 4.0 6.0 0.00 0.00 0.00 33 1019.7
20240220001804 53 74 4.0 7.0 0.00 0.00 0.00 33 1019.7
20240219235805 55 102 7.0 14.0 0.00 0.00 0.00 31 1019.6
20240219235307 55 85 4.0 8.0 0.00 0.00 0.00 30 1019.6
20240219234304 55 103 6.0 9.0 0.00 0.00 0.00 28 1019.4
20240219233303 56 83 5.0 9.0 0.00 0.00 0.00 29 1019.3
20240219231804 57 109 6.0 12.0 0.00 0.00 0.00 25 1019.1
20240219225306 57 96 6.0 9.0 0.00 0.00 0.00 25 1019.3
20240219224304 57 61 6.0 12.0 0.00 0.00 0.00 26 1019.3
20240219223304 57 73 6.0 12.0 0.00 0.00 0.00 27 1019.4
20240219222803 56 57 6.0 12.0 0.00 0.00 0.00 27 1019.4
20240219222306 56 103 8.0 13.0 0.00 0.00 0.00 27 1019.5
20240219221804 56 80 8.0 13.0 0.00 0.00 0.00 28 1019.5
20240219220803 55 89 6.0 12.0 0.00 0.00 0.00 29 1019.8
20240219214803 55 64 5.0 8.0 0.00 0.00 0.00 29 1019.1
20240219214304 55 93 5.0 9.0 0.00 0.00 0.00 28 1019.1